Flag for Spain Weather past 2 weeks in Santa Cruz de Tenerife, Canary Islands, Spain

Now
73 °F

Passing clouds.


Feels Like: 73 °F
Forecast: 75 / 78 °F
Wind: 2 mph from North

Location: Tenerife Sur

Current Time: Sep 17, 2014 at 4:32:49 AM

Latest Report: Sep 17, 2014 at 4:00 AM


Visibility: N/A

Pressure: 29.92 "Hg

Humidity: 83%

Dew point: 68 °F

Location of Santa Cruz de TenerifeLocation

Historic Weather in Santa Cruz de Tenerife — Graph

°F

Santa Cruz de Tenerife temperature yesterday

Maximum temperature yesterday: 82 °F (at 6:30 PM)
Minimum temperature yesterday: 72 °F (at 4:30 AM)
Average temperature yesterday: 77 °F

Past Weeks' High & Low Weather Summary

 TemperatureHumidityPressure
High90 °F (Sep 15, 1:30 PM)89% (Sep 3, 1:00 AM)30.12 "Hg (Sep 3, 1:00 AM)
Low72 °F (Sep 2, 4:00 AM)38% (Sep 15, 1:30 PM)29.89 "Hg (Sep 15, 5:00 PM)
Average78 °F74%30.03 "Hg
* Reported Sep 2 3:00 AM — Sep 17 3:30 AM, Santa Cruz de Tenerife, Weather by CustomWeather, © 2014

Note: Actual official high and low records may vary slightly from our data, if they occured in-between our weather recording intervals... More about our weather records

Advertising

Santa Cruz de Tenerife weather history for previous 24 hours

 ConditionsComfort  
Time TempWeatherWind HumidityBarometerVisibility
3:30 AM
Sep 17
73 °FPassing clouds.2 mph83%29.92 "HgN/A
3:00 AM75 °FPassing clouds.No wind78%29.95 "HgN/A
2:30 AM75 °FPassing clouds.1 mph78%29.95 "HgN/A
2:00 AM75 °FPassing clouds.2 mph83%29.95 "HgN/A
1:30 AM75 °FPassing clouds.No wind89%29.95 "HgN/A
1:00 AM75 °FPassing clouds.No wind89%29.98 "HgN/A
12:30 AM75 °FPassing clouds.1 mph89%29.98 "HgN/A
12:00 AM77 °FPassing clouds.2 mph83%29.98 "HgN/A
11:30 PM
Sep 16
77 °FPassing clouds.2 mph89%29.98 "HgN/A
11:00 PM77 °FPassing clouds.2 mph83%29.98 "HgN/A
10:30 PM77 °FPassing clouds.3 mph83%29.98 "HgN/A
10:00 PM77 °FPassing clouds.2 mph83%29.95 "HgN/A
9:30 PM79 °FPassing clouds.5 mph74%29.95 "HgN/A
9:00 PM79 °FPassing clouds.6 mph74%29.95 "HgN/A
8:30 PM79 °FScattered clouds.6 mph79%29.95 "HgN/A
8:00 PM79 °FScattered clouds.6 mph74%29.95 "HgN/A
7:30 PM81 °FScattered clouds.3 mph70%29.95 "HgN/A
7:00 PM81 °FPartly sunny.5 mph70%29.92 "HgN/A
6:30 PM82 °FPartly sunny.5 mph66%29.92 "HgN/A
6:00 PM81 °FPartly sunny.2 mph70%29.95 "HgN/A
5:30 PM81 °FPartly sunny.5 mph70%29.92 "HgN/A
5:00 PM79 °FPartly sunny.5 mph74%29.95 "HgN/A
4:30 PM81 °FPartly sunny.6 mph66%29.95 "HgN/A
4:00 PM81 °FPartly sunny.7 mph70%29.92 "HgN/A
3:30 PM81 °FPartly sunny.3 mph66%29.95 "HgN/A
3:00 PM81 °FPartly sunny.3 mph70%29.95 "HgN/A
2:30 PM79 °FPartly sunny.6 mph74%29.95 "HgN/A
2:00 PM79 °FPartly sunny.6 mph74%29.95 "HgN/A
1:30 PM81 °FPartly sunny.6 mph70%29.95 "HgN/A
12:30 PM81 °FPartly sunny.6 mph70%29.95 "HgN/A
12:00 PM79 °FPartly sunny.9 mph74%29.95 "HgN/A
11:30 AM81 °FPartly sunny.10 mph66%29.95 "HgN/A
11:00 AM79 °FPartly sunny.9 mph74%29.95 "HgN/A
10:30 AM79 °FScattered clouds.5 mph70%29.95 "HgN/A
10:00 AM79 °FScattered clouds.6 mph74%29.95 "HgN/A
9:30 AM77 °FPassing clouds.3 mph74%29.92 "HgN/A
9:00 AM75 °FPassing clouds.6 mph74%29.92 "HgN/A
8:30 AM73 °FPassing clouds.6 mph74%29.92 "HgN/A
8:00 AM72 °FPassing clouds.6 mph78%29.92 "HgN/A
7:30 AM72 °FPassing clouds.5 mph78%29.92 "HgN/A
7:00 AM72 °FClear.6 mph78%29.89 "Hg10 mi
6:30 AM72 °FClear.3 mph83%29.89 "Hg10 mi
6:00 AM73 °FClear.5 mph83%29.89 "Hg10 mi
5:30 AM73 °FClear.3 mph83%29.89 "Hg10 mi
5:00 AM72 °FClear.3 mph83%29.89 "Hg10 mi
4:30 AM72 °FClear.3 mph83%29.89 "Hg10 mi
4:00 AM73 °FClear.No wind78%29.92 "Hg10 mi
Weather by CustomWeather, © 2014

See weather overviewHow to use our weather pages